Powrót do katalogu

GONETS M 15

M25

AktywnyŁącznośćPO
NORAD 44906·PAYLOAD·🇷🇺 Russia

Wystrzelony Dec 26, 2019 z Plesetsk Cosmodrome

Loading…

Następne Przeloty (najbliższe 24 godziny)

TLE

ŚwieżeSource: Space-Track

Epoka: Sep 14, 2026, 14:10 UTC

1 44906U 19096B   26257.59079080 -.00000113  00000-0 -89009-3 0  9994
2 44906  82.5281  29.6699 0014879 344.0565  16.0044 12.42883483304755

Śledź GONETS M 15 w czasie rzeczywistym z AllMySat

Download on the App Store